Location: Luxembourg
(49.6117°N, 6.1300°E)
Time: 01:56:52
(UTC+02:00)

Tiangong 2 - Visible Passes

Search period start: 26 May 2018 00:00
Search period end: 05 June 2018 00:00
Orbit: 382 x 385 km, 42.8° (Epoch: 25 May)

Date Brightness Start Highest point End Pass type
(mag) Time Alt. Az. Time Alt. Az. Time Alt. Az.
26 May 2.4 22:47:33 10° WSW 22:50:09 23° S 22:51:30 18° SE visible
27 May 2.8 23:24:22 10° WSW 23:26:31 18° SSW 23:26:31 18° SSW visible
28 May 2.6 22:24:32 10° WSW 22:27:02 22° S 22:29:18 11° SE visible
29 May 3.1 23:01:39 10° SW 23:03:30 15° SSW 23:04:13 14° S visible
31 May 3.5 22:39:28 10° SW 22:40:16 11° SSW 22:41:04 10° S visible
